When you browse on this site, cookies collect data to enhance your experience and personalize the content and advertising you see.
Visit our Privacy Policy to learn more. By continuing to use the site, you agree to this use of cookies and data.
  • En España
  • Lista de países
  • Para 7 días
  • Temperatura del agua
  • El tiempo en el mapa
  • Informadores
  • user-avatar
    Iniciar sesión

    Tiempo cada hora Kingston upon Thames

    Hoy, 25 Enero, Sábado

    Tiempo Temperatura Precipitaciones Viento Presión Humedad
    00:00 +6°C° 0 mm 1 mps 764 mmHg 89%
    01:00 +6°C° 0 mm 1 mps 763 mmHg 89%
    02:00 +5°C° 0 mm 1 mps 763 mmHg 89%
    03:00 +5°C° 0 mm 1 mps 763 mmHg 89%
    04:00 +5°C° 0 mm 1 mps 763 mmHg 89%
    05:00 +4°C° 0 mm 1 mps 762 mmHg 90%
    06:00 +4°C° 0 mm 1 mps 762 mmHg 92%
    07:00 +4°C° 0 mm 1 mps 762 mmHg 92%
    08:00 +3°C° 0 mm 2 mps 762 mmHg 92%
    09:00 +4°C° 0 mm 2 mps 762 mmHg 92%
    10:00 +5°C° 0 mm 2 mps 762 mmHg 88%
    11:00 +5°C° 0 mm 3 mps 762 mmHg 85%
    12:00 +7°C° 0 mm 3 mps 762 mmHg 81%
    13:00 +8°C° 0 mm 3 mps 761 mmHg 82%
    14:00 +8°C° 0 mm 3 mps 761 mmHg 83%
    15:00 +8°C° 0 mm 3 mps 760 mmHg 84%
    16:00 +8°C° 0 mm 3 mps 760 mmHg 87%
    17:00 +7°C° 0 mm 2 mps 760 mmHg 91%
    18:00 +6°C° 0 mm 2 mps 760 mmHg 94%
    19:00 +6°C° 0 mm 2 mps 759 mmHg 94%
    20:00 +6°C° 0 mm 2 mps 759 mmHg 95%
    21:00 +6°C° 0 mm 2 mps 759 mmHg 96%
    22:00 +6°C° 0 mm 2 mps 759 mmHg 96%
    23:00 +6°C° 0 mm 2 mps 758 mmHg 97%

    Mañana, 26 Enero, Domingo

    Tiempo Temperatura Precipitaciones Viento Presión Humedad
    00:00 +5°C° 0 mm 3 mps 758 mmHg 97%
    01:00 +5°C° 0 mm 3 mps 757 mmHg 96%
    02:00 +7°C° 0 mm 3 mps 757 mmHg 96%
    03:00 +6°C° 0 mm 4 mps 757 mmHg 95%
    04:00 +6°C° 0 mm 4 mps 756 mmHg 93%
    05:00 +6°C° 0 mm 4 mps 756 mmHg 91%
    06:00 +6°C° 0 mm 4 mps 756 mmHg 89%
    07:00 +6°C° 0 mm 4 mps 756 mmHg 90%
    08:00 +6°C° 0 mm 4 mps 756 mmHg 90%
    09:00 +7°C° 0 mm 5 mps 756 mmHg 91%
    10:00 +7°C° 0 mm 5 mps 756 mmHg 86%
    11:00 +8°C° 0 mm 6 mps 755 mmHg 81%
    12:00 +9°C° 0 mm 7 mps 755 mmHg 77%
    13:00 +8°C° 0.1 mm 7 mps 754 mmHg 79%
    14:00 +8°C° 0.1 mm 7 mps 754 mmHg 82%
    15:00 +8°C° 0.1 mm 7 mps 754 mmHg 85%
    16:00 +8°C° 1.5 mm 7 mps 753 mmHg 87%
    17:00 +8°C° 1.5 mm 7 mps 753 mmHg 89%
    18:00 +8°C° 1.5 mm 6 mps 753 mmHg 92%
    19:00 +8°C° 1.8 mm 5 mps 753 mmHg 92%
    20:00 +8°C° 1.8 mm 4 mps 753 mmHg 93%
    21:00 +8°C° 1.8 mm 3 mps 752 mmHg 93%
    22:00 +8°C° 0.1 mm 3 mps 752 mmHg 93%
    23:00 +7°C° 0.1 mm 3 mps 752 mmHg 93%

    Pasado mañana, 27 Enero, Lunes

    Tiempo Temperatura Precipitaciones Viento Presión Humedad
    00:00 +7°C° 0.1 mm 3 mps 752 mmHg 93%
    01:00 +5°C° 0 mm 3 mps 752 mmHg 91%
    02:00 +5°C° 0 mm 3 mps 752 mmHg 90%
    03:00 +4°C° 0 mm 3 mps 752 mmHg 88%
    04:00 +4°C° 0 mm 3 mps 752 mmHg 89%
    05:00 +4°C° 0 mm 3 mps 752 mmHg 89%
    06:00 +4°C° 0 mm 3 mps 751 mmHg 90%
    07:00 +4°C° 0 mm 3 mps 751 mmHg 89%
    08:00 +5°C° 0 mm 3 mps 751 mmHg 88%
    09:00 +5°C° 0 mm 4 mps 750 mmHg 87%
    10:00 +6°C° 0.2 mm 4 mps 750 mmHg 86%
    11:00 +6°C° 0.2 mm 5 mps 749 mmHg 84%
    12:00 +7°C° 0.2 mm 6 mps 749 mmHg 83%
    13:00 +7°C° 0.6 mm 6 mps 748 mmHg 84%
    14:00 +7°C° 0.6 mm 6 mps 747 mmHg 84%
    15:00 +7°C° 0.6 mm 5 mps 746 mmHg 85%
    16:00 +6°C° 0.6 mm 5 mps 746 mmHg 86%
    17:00 +6°C° 0.6 mm 5 mps 745 mmHg 86%
    18:00 +6°C° 0.6 mm 4 mps 744 mmHg 87%
    19:00 +5°C° 0.1 mm 4 mps 744 mmHg 87%
    20:00 +5°C° 0.1 mm 4 mps 743 mmHg 88%
    21:00 +5°C° 0.1 mm 4 mps 743 mmHg 88%
    22:00 +5°C° 0.1 mm 4 mps 742 mmHg 87%
    23:00 +5°C° 0.1 mm 4 mps 742 mmHg 86%

    28 Enero, Martes

    Tiempo Temperatura Precipitaciones Viento Presión Humedad
    00:00 +5°C° 0.1 mm 4 mps 741 mmHg 85%
    01:00 +3°C° 0.2 mm 5 mps 741 mmHg 85%
    02:00 +3°C° 0.2 mm 6 mps 740 mmHg 85%
    03:00 +2°C° 0.2 mm 6 mps 740 mmHg 85%
    04:00 +2°C° 0 mm 6 mps 741 mmHg 82%
    05:00 +1°C° 0 mm 6 mps 741 mmHg 80%
    06:00 +1°C° 0 mm 6 mps 742 mmHg 77%
    07:00 +1°C° 0 mm 6 mps 743 mmHg 76%
    08:00 +1°C° 0 mm 6 mps 743 mmHg 74%
    09:00 +1°C° 0 mm 5 mps 744 mmHg 73%
    10:00 +2°C° 0 mm 6 mps 744 mmHg 70%
    11:00 +3°C° 0 mm 6 mps 744 mmHg 66%
    12:00 +4°C° 0 mm 7 mps 745 mmHg 63%
    13:00 +4°C° 0.1 mm 7 mps 745 mmHg 65%
    14:00 +3°C° 0.1 mm 7 mps 745 mmHg 66%
    15:00 +3°C° 0.1 mm 7 mps 745 mmHg 67%
    16:00 +3°C° 0 mm 6 mps 745 mmHg 70%
    17:00 +2°C° 0 mm 6 mps 746 mmHg 73%
    18:00 +1°C° 0 mm 5 mps 746 mmHg 76%
    19:00 +1°C° 0 mm 5 mps 747 mmHg 77%
    20:00 +1°C° 0 mm 5 mps 748 mmHg 78%
    21:00 0°C° 0 mm 5 mps 748 mmHg 79%
    22:00 0°C° 0 mm 5 mps 749 mmHg 79%
    23:00 0°C° 0 mm 5 mps 749 mmHg 78%

    29 Enero, Miércoles

    Tiempo Temperatura Precipitaciones Viento Presión Humedad
    00:00 0°C° 0 mm 5 mps 750 mmHg 77%
    01:00 0°C° 0 mm 5 mps 750 mmHg 79%
    02:00 0°C° 0 mm 5 mps 751 mmHg 80%
    03:00 0°C° 0 mm 5 mps 751 mmHg 82%
    04:00 0°C° 0 mm 5 mps 751 mmHg 81%
    05:00 0°C° 0 mm 5 mps 752 mmHg 80%
    06:00 0°C° 0 mm 5 mps 752 mmHg 79%
    07:00 0°C° 0 mm 5 mps 752 mmHg 78%
    08:00 +1°C° 0 mm 5 mps 753 mmHg 78%
    09:00 +1°C° 0 mm 6 mps 753 mmHg 78%
    10:00 +2°C° 0 mm 6 mps 753 mmHg 75%
    11:00 +3°C° 0 mm 7 mps 754 mmHg 72%
    12:00 +4°C° 0 mm 8 mps 754 mmHg 69%
    13:00 +4°C° 0 mm 7 mps 754 mmHg 68%
    14:00 +4°C° 0 mm 7 mps 755 mmHg 67%
    15:00 +4°C° 0 mm 6 mps 755 mmHg 67%
    16:00 +5°C° 0 mm 5 mps 755 mmHg 72%
    17:00 +4°C° 0 mm 4 mps 756 mmHg 78%
    18:00 +3°C° 0 mm 3 mps 756 mmHg 83%
    19:00 +3°C° 0 mm 4 mps 757 mmHg 84%
    20:00 +4°C° 0 mm 4 mps 757 mmHg 85%
    21:00 +4°C° 0 mm 4 mps 757 mmHg 86%
    22:00 +4°C° 0 mm 4 mps 757 mmHg 87%
    23:00 +3°C° 0 mm 5 mps 757 mmHg 87%

    30 Enero, Jueves

    Tiempo Temperatura Precipitaciones Viento Presión Humedad
    00:00 +5°C° 0 mm 5 mps 757 mmHg 88%
    01:00 +5°C° 0 mm 5 mps 757 mmHg 88%
    02:00 +5°C° 0 mm 5 mps 757 mmHg 88%
    03:00 +5°C° 0 mm 5 mps 757 mmHg 88%
    04:00 +5°C° 0 mm 4 mps 756 mmHg 89%
    05:00 +4°C° 0 mm 4 mps 756 mmHg 90%
    06:00 +4°C° 0 mm 4 mps 756 mmHg 91%
    07:00 +4°C° 0 mm 4 mps 756 mmHg 90%
    08:00 +4°C° 0 mm 4 mps 756 mmHg 90%
    09:00 +5°C° 0 mm 4 mps 756 mmHg 89%
    10:00 +6°C° 0 mm 5 mps 756 mmHg 85%
    11:00 +6°C° 0 mm 5 mps 755 mmHg 82%
    12:00 +7°C° 0 mm 5 mps 755 mmHg 78%
    13:00 +7°C° 0 mm 5 mps 754 mmHg 78%
    14:00 +7°C° 0 mm 4 mps 754 mmHg 77%
    15:00 +7°C° 0 mm 4 mps 753 mmHg 76%
    16:00 +7°C° 0 mm 4 mps 752 mmHg 79%
    17:00 +6°C° 0 mm 4 mps 752 mmHg 81%
    18:00 +6°C° 0 mm 4 mps 751 mmHg 84%
    19:00 +6°C° 0 mm 4 mps 751 mmHg 88%
    20:00 +7°C° 0 mm 4 mps 751 mmHg 92%
    21:00 +7°C° 0 mm 4 mps 750 mmHg 96%
    22:00 +8°C° 0 mm 4 mps 750 mmHg 96%
    23:00 +8°C° 0 mm 4 mps 750 mmHg 97%
    Mostrar más